Regional Weather Roundup
Issued by NWS

Home | Current Version | Previous Version | Text Only | Print | Product List | Glossary On
Versions: 1 2 3 4 5 6 7 8 9 10 11 12 13 14 15 16 17 18 19 20 21 22 23 24 25 26 27
000
ASUS46 KSEW 230610
RWRWA

WASHINGTON REGIONAL WEATHER ROUNDUP
NATIONAL WEATHER SERVICE SEATTLE WA
1100 PM PDT TUE AUG 22 2017

NOTE:"FAIR" INDICATES FEW OR NO CLOUDS BELOW 12,000 FEET WITH NO
SIGNIFICANT WEATHER AND/OR OBSTRUCTIONS TO VISIBILITY.

WAZ507-509-555>559-230700-
SEATTLE, TACOMA, EVERETT, AND VICINITY

CITY           SKY/WX    TMP DP  RH WIND       PRES   REMARKS
EVERETT        CLEAR     62  55  77 N9        30.04R
6HR MIN TEMP:  62; 6HR MAX TEMP:  78;

BOEING FIELD   CLEAR     68  60  75 CALM      30.02R
6HR MIN TEMP:  68; 6HR MAX TEMP:  88;

RENTON         CLEAR     70  60  70 S7        30.02R
6HR MIN TEMP:  70; 6HR MAX TEMP:  88;

SEATAC AIRPORT CLEAR     64  58  80 S9        30.04R
6HR MIN TEMP:  64; 6HR MAX TEMP:  86;

JBLM-MCCHORD   CLEAR     65  61  84 CALM      30.04R
6HR MIN TEMP:  65; 6HR MAX TEMP:  86;

PUYALLUP       MOCLDY    64  61  88 CALM      30.04S
BREMERTON      CLEAR     61  57  87 S3        30.03R
6HR MIN TEMP:  61; 6HR MAX TEMP:  86;

JBLM-FT LEWIS  CLEAR     64  60  85 W6        30.03R
6HR MIN TEMP:  64; 6HR MAX TEMP:  84;

TACOMA NARROWS CLEAR     62  57  83 W6        30.04R
6HR MIN TEMP:  62; 6HR MAX TEMP:  83;

$$

WAZ001-503-506-510-514-515-230700-
NORTH INTERIOR

CITY           SKY/WX    TMP DP  RH WIND       PRES   REMARKS
BELLINGHAM     CLEAR     66  57  72 S9        29.96S
6HR MIN TEMP:  66; 6HR MAX TEMP:  77;

FRIDAY HARBOR  CLEAR     61  54  77 VRB3      29.98R
6HR MIN TEMP:  59; 6HR MAX TEMP:  68;

EASTSOUND      PTCLDY    64  55  72 S13       29.95S
PORT ANGELES   CLEAR     62  56  80 W12       30.03S
6HR MIN TEMP:  60; 6HR MAX TEMP:  69;

EDIZ HOOK      FAIR      55  52  90 W17       30.03R
6HR MIN TEMP:  55; 6HR MAX TEMP:  62;

PORT TOWNSEND  FAIR      64  55  72 VRB7      30.02R
NAS WHIDBEY    PTCLDY    59  52  77 W12       30.05R
6HR MIN TEMP:  58; 6HR MAX TEMP:  67;

ARLINGTON      CLEAR     61  55  81 NW6       30.04R
6HR MIN TEMP:  60; 6HR MAX TEMP:  83;

BURLINGTON     CLEAR     59  55  88 SE8       30.02R
$$

WAZ020-022-039-040-504-511-512-230700-
SOUTHWEST INTERIOR

CITY           SKY/WX    TMP DP  RH WIND       PRES   REMARKS
SHELTON        CLOUDY    61  58  90 W15       30.01R
6HR MIN TEMP:  61; 6HR MAX TEMP:  82;

OLYMPIA        CLEAR     62  56  80 S7        30.03R
6HR MIN TEMP:  62; 6HR MAX TEMP:  84;

CHEHALIS       FAIR      61  59  94 VRB3      30.06R
KELSO          CLOUDY    64  60  87 NW6       30.07S
6HR MIN TEMP:  64; 6HR MAX TEMP:  79;

VANCOUVER      CLEAR     70  60  70 VRB3      30.02R
6HR MIN TEMP:  70; 6HR MAX TEMP:  87;

SCAPPOOSE, OR  CLEAR     68  58  70 N7        30.02S
6HR MIN TEMP:  68; 6HR MAX TEMP:  86;

PORTLAND, OR   CLEAR     69  59  70 NW6       30.03R
6HR MIN TEMP:  69; 6HR MAX TEMP:  87;

$$

WAZ021-516-517-230700-
WASHINGTON COAST

CITY           SKY/WX    TMP DP  RH WIND       PRES   REMARKS
FORKS          CLOUDY    59  57  93 NW3       30.07S
6HR MIN TEMP:  58; 6HR MAX TEMP:  67;

HOQUIAM        CLOUDY    59  59 100 W8        30.08R
6HR MIN TEMP:  59; 6HR MAX TEMP:  64;

ASTORIA, OR    CLOUDY    58  57  97 SW3       30.09R FOG
6HR MIN TEMP:  58; 6HR MAX TEMP:  65;

$$

WAZ019-023-024-040-567>569-230700-
CASCADE MOUNTAINS AND COLUMBIA GORGE

CITY           SKY/WX    TMP DP  RH WIND       PRES   REMARKS
STAMPEDE PASS  CLEAR     58  49  72 SW6       30.14S
6HR MIN TEMP:  58; 6HR MAX TEMP:  75;

TROUTDALE, OR  CLEAR     71  59  65 W3        30.02R
6HR MIN TEMP:  71; 6HR MAX TEMP:  89;

HOOD RIVER, OR CLEAR     70  55  60 CALM      29.99S
THE DALLES, OR CLEAR     80  57  45 NW14      29.92S
6HR MIN TEMP:  80; 6HR MAX TEMP:  91;

$$

WAZ026-027-041>044-520-521-230700-
EAST SLOPES

CITY           SKY/WX    TMP DP  RH WIND       PRES   REMARKS
OMAK           CLEAR     75  42  30 SW7       29.87S
6HR MIN TEMP:  75; 6HR MAX TEMP:  95;

WENATCHEE      CLEAR     78  49  35 NW10      29.90S
6HR MIN TEMP:  76; 6HR MAX TEMP:  89;

ELLENSBURG     CLEAR     73  50  44 NW10      29.96F
6HR MIN TEMP:  72; 6HR MAX TEMP:  95;

YAKIMA         CLEAR     71  52  50 W3        29.92S
6HR MIN TEMP:  69; 6HR MAX TEMP:  93;

SUNNYSIDE ARPT   N/A     62  52  68 W5        29.89R
6HR MIN TEMP:  62; 6HR MAX TEMP:  85;

YAKIMA TC      FAIR      69  48  47 CALM      29.92R
6HR MIN TEMP:  69; 6HR MAX TEMP:  92;

$$

WAZ028-034-035-230700-
COLUMBIA BASIN

CITY           SKY/WX    TMP DP  RH WIND       PRES   REMARKS
EPHRATA        CLEAR     70  41  34 CALM      29.88S
6HR MIN TEMP:  69; 6HR MAX TEMP:  92;

MOSES LAKE     CLEAR     73  50  44 S8        29.89S
6HR MIN TEMP:  72; 6HR MAX TEMP:  92;

PASCO          CLEAR     73  56  54 E6        29.87S
6HR MIN TEMP:  72; 6HR MAX TEMP:  93;

RICHLAND ARPT  CLEAR     75  55  49 E3        29.87R
6HR MIN TEMP:  73; 6HR MAX TEMP:  93;

HERMISTON, OR  CLEAR     73  50  44 S12       29.90R
6HR MIN TEMP:  72; 6HR MAX TEMP:  92;

$$

WAZ036>038-230700-
NORTHEAST WASHINGTON

CITY           SKY/WX    TMP DP  RH WIND       PRES   REMARKS
SPOKANE GEIGER MOCLDY    73  41  31 SW7       29.95F
6HR MIN TEMP:  71; 6HR MAX TEMP:  90;

SPOKANE FELTS  CLEAR     67  45  45 CALM      29.94S
6HR MIN TEMP:  67; 6HR MAX TEMP:  93;

FAIRCHILD AFB  CLEAR     68  40  36 W8        29.96S
6HR MIN TEMP:  68; 6HR MAX TEMP:  89;

COEURDALENE,ID CLEAR     68  48  48 CALM      29.96S
6HR MIN TEMP:  68; 6HR MAX TEMP:  90;

DEER PARK      CLEAR     59  40  49 NE3       29.94F
6HR MIN TEMP:  59; 6HR MAX TEMP:  90;

$$

WAZ029>033-230700-
SOUTHEAST WASHINGTON

CITY           SKY/WX    TMP DP  RH WIND       PRES   REMARKS
PULLMAN        CLEAR     62  39  42 CALM      30.00S
6HR MIN TEMP:  62; 6HR MAX TEMP:  90;

LEWISTON, ID   CLEAR     75  41  29 S6        29.91S
6HR MIN TEMP:  75; 6HR MAX TEMP:  96;

WALLA WALLA    CLEAR     77  47  34 SE8       29.92F
6HR MIN TEMP:  73; 6HR MAX TEMP:  90;

PENDLETON, OR  CLEAR     69  44  40 CALM      29.95R
6HR MIN TEMP:  68; 6HR MAX TEMP:  90;

$$




USA.gov is the U.S. government's official web portal to all federal, state and local government web resources and services.